Time,TemperatureF,DewpointF,PressureIn,WindDirection,WindDirectionDegrees,WindSpeedMPH,WindSpeedGustMPH,Humidity,HourlyPrecipIn,Conditions,Clouds,dailyrainin,SoftwareType,DateUTC
2013-01-25 00:03:00,63.5,59.9,30.19,South,184,0.0,4.0,88,0.00,,CLR,0.00,VWS V14.01,2013-01-25 06:03:00,
2013-01-25 00:08:00,63.4,59.8,30.18,South,184,0.0,0.0,88,0.00,,CLR,0.00,VWS V14.01,2013-01-25 06:08:00,
2013-01-25 00:13:00,63.4,60.1,30.18,South,184,0.0,0.0,89,0.00,,CLR,0.00,VWS V14.01,2013-01-25 06:13:00,
2013-01-25 00:18:00,63.4,60.1,30.18,South,186,0.0,0.0,89,0.00,,CLR,0.00,VWS V14.01,2013-01-25 06:18:00,
2013-01-25 00:23:00,63.4,60.1,30.18,South,180,0.0,0.0,89,0.00,,BKN010,0.00,VWS V14.01,2013-01-25 06:23:00,
2013-01-25 00:28:00,63.4,60.1,30.18,South,173,0.0,0.0,89,0.00,,BKN010,0.00,VWS V14.01,2013-01-25 06:28:00,
2013-01-25 00:33:00,63.2,60.2,30.17,South,174,0.0,2.0,90,0.00,,BKN010,0.00,VWS V14.01,2013-01-25 06:33:00,
2013-01-25 00:38:00,63.2,60.2,30.17,South,173,3.0,4.0,90,0.00,,BKN010,0.00,VWS V14.01,2013-01-25 06:38:00,
2013-01-25 00:43:00,63.4,60.4,30.17,SE,131,4.0,4.0,90,0.00,,BKN010,0.00,VWS V14.01,2013-01-25 06:43:00,
2013-01-25 00:48:00,63.4,60.4,30.17,SSE,168,5.0,10.0,90,0.00,,OVC008,0.00,VWS V14.01,2013-01-25 06:48:00,
2013-01-25 00:53:00,63.4,60.4,30.17,South,189,5.0,10.0,90,0.00,,OVC008,0.00,VWS V14.01,2013-01-25 06:53:00,
2013-01-25 00:58:00,63.5,60.8,30.17,South,169,1.0,11.0,91,0.00,,OVC008,0.00,VWS V14.01,2013-01-25 06:58:00,
2013-01-25 01:03:00,63.5,60.8,30.17,South,180,0.0,11.0,91,0.00,,OVC008,0.00,VWS V14.01,2013-01-25 07:03:00,
2013-01-25 01:08:00,63.5,60.8,30.17,South,184,1.0,6.0,91,0.00,,OVC008,0.00,VWS V14.01,2013-01-25 07:08:00,
2013-01-25 01:13:00,63.7,61.0,30.17,SSW,192,7.0,7.0,91,0.00,,OVC006,0.00,VWS V14.01,2013-01-25 07:13:00,
2013-01-25 01:18:00,63.7,61.0,30.16,South,177,3.0,13.0,91,0.00,,OVC006,0.00,VWS V14.01,2013-01-25 07:18:00,
2013-01-25 01:23:00,63.7,61.3,30.16,South,182,0.0,13.0,92,0.00,,OVC006,0.00,VWS V14.01,2013-01-25 07:23:00,
2013-01-25 01:28:00,63.9,61.5,30.16,South,171,2.0,8.0,92,0.00,,OVC006,0.00,VWS V14.01,2013-01-25 07:28:00,
2013-01-25 01:33:00,63.9,61.5,30.17,South,186,0.0,8.0,92,0.00,,OVC006,0.00,VWS V14.01,2013-01-25 07:33:00,
2013-01-25 01:38:00,63.9,61.5,30.17,SSW,198,3.0,7.0,92,0.00,,OVC006,0.00,VWS V14.01,2013-01-25 07:38:00,
2013-01-25 01:43:00,63.9,61.5,30.17,SSW,192,5.0,11.0,92,0.00,,OVC006,0.00,VWS V14.01,2013-01-25 07:43:00,
2013-01-25 01:48:00,63.9,61.5,30.17,SSE,168,4.0,10.0,92,0.00,,OVC006,0.00,VWS V14.01,2013-01-25 07:48:00,
2013-01-25 01:53:00,63.9,61.5,30.17,SSW,198,2.0,10.0,92,0.00,,OVC006,0.00,VWS V14.01,2013-01-25 07:53:00,
2013-01-25 01:58:00,64.0,61.6,30.17,SSW,193,6.0,9.0,92,0.00,,OVC006,0.00,VWS V14.01,2013-01-25 07:58:00,
2013-01-25 02:03:00,64.0,61.6,30.16,South,171,9.0,11.0,92,0.00,,OVC006,0.00,VWS V14.01,2013-01-25 08:03:00,
2013-01-25 02:08:00,63.9,61.5,30.16,SSW,192,2.0,10.0,92,0.00,,OVC006,0.00,VWS V14.01,2013-01-25 08:08:00,
2013-01-25 02:13:00,64.0,61.3,30.16,South,174,0.0,12.0,91,0.00,,OVC006,0.00,VWS V14.01,2013-01-25 08:13:00,
2013-01-25 02:18:00,64.0,61.3,30.16,SSW,192,5.0,11.0,91,0.00,,OVC006,0.00,VWS V14.01,2013-01-25 08:18:00,
2013-01-25 02:23:00,64.0,61.3,30.16,SSW,192,7.0,12.0,91,0.00,,OVC006,0.00,VWS V14.01,2013-01-25 08:23:00,
2013-01-25 02:28:00,64.0,61.3,30.16,SSW,192,6.0,11.0,91,0.00,,OVC006,0.00,VWS V14.01,2013-01-25 08:28:00,
2013-01-25 02:33:00,64.0,61.3,30.16,South,169,5.0,11.0,91,0.00,,OVC006,0.00,VWS V14.01,2013-01-25 08:33:00,
2013-01-25 02:38:00,64.2,61.5,30.15,SSE,166,0.0,14.0,91,0.00,,OVC006,0.00,VWS V14.01,2013-01-25 08:38:00,
2013-01-25 02:43:00,64.2,61.5,30.15,SE,146,4.0,14.0,91,0.00,,OVC006,0.00,VWS V14.01,2013-01-25 08:43:00,
2013-01-25 02:48:00,64.2,61.5,30.15,SSW,203,0.0,13.0,91,0.00,,OVC006,0.00,VWS V14.01,2013-01-25 08:48:00,
2013-01-25 02:53:00,64.2,61.5,30.15,South,178,5.0,13.0,91,0.00,,OVC006,0.00,VWS V14.01,2013-01-25 08:53:00,
2013-01-25 02:58:00,64.2,61.2,30.15,South,190,4.0,10.0,90,0.00,,OVC006,0.00,VWS V14.01,2013-01-25 08:58:00,
2013-01-25 03:03:00,64.3,61.3,30.15,South,188,4.0,10.0,90,0.00,,OVC006,0.00,VWS V14.01,2013-01-25 09:03:00,
2013-01-25 03:08:00,64.3,61.3,30.14,SSE,167,5.0,12.0,90,0.00,,OVC006,0.00,VWS V14.01,2013-01-25 09:08:00,
2013-01-25 03:13:00,64.3,61.3,30.14,South,174,6.0,12.0,90,0.00,,OVC006,0.00,VWS V14.01,2013-01-25 09:13:00,
2013-01-25 03:18:00,64.3,61.3,30.14,South,172,0.0,11.0,90,0.00,,OVC006,0.00,VWS V14.01,2013-01-25 09:18:00,
2013-01-25 03:23:00,64.3,61.3,30.14,South,175,5.0,13.0,90,0.00,,OVC006,0.00,VWS V14.01,2013-01-25 09:23:00,
2013-01-25 03:28:00,64.3,61.3,30.14,SSW,201,4.0,11.0,90,0.00,,OVC006,0.00,VWS V14.01,2013-01-25 09:28:00,
2013-01-25 03:33:00,64.5,61.2,30.14,SSW,195,7.0,12.0,89,0.00,,OVC006,0.00,VWS V14.01,2013-01-25 09:33:00,
2013-01-25 03:38:00,64.5,61.2,30.13,South,184,5.0,5.0,89,0.00,,OVC006,0.00,VWS V14.01,2013-01-25 09:38:00,
2013-01-25 03:43:00,64.5,61.2,30.13,South,186,6.0,9.0,89,0.00,,OVC006,0.00,VWS V14.01,2013-01-25 09:43:00,
2013-01-25 03:48:00,64.5,61.2,30.13,South,173,0.0,13.0,89,0.00,,OVC008,0.00,VWS V14.01,2013-01-25 09:48:00,
2013-01-25 03:53:00,64.5,61.2,30.14,South,184,5.0,13.0,89,0.00,,OVC008,0.00,VWS V14.01,2013-01-25 09:53:00,
2013-01-25 03:58:00,64.5,61.2,30.14,SSW,193,5.0,11.0,89,0.00,,OVC008,0.00,VWS V14.01,2013-01-25 09:58:00,
2013-01-25 04:03:00,64.5,61.2,30.14,South,184,12.0,13.0,89,0.00,,OVC008,0.00,VWS V14.01,2013-01-25 10:03:00,
2013-01-25 04:08:00,64.5,61.2,30.13,SSW,204,3.0,8.0,89,0.00,,OVC008,0.00,VWS V14.01,2013-01-25 10:08:00,
2013-01-25 04:13:00,64.5,60.9,30.13,SSE,167,9.0,11.0,88,0.00,,OVC008,0.00,VWS V14.01,2013-01-25 10:13:00,
2013-01-25 04:18:00,64.5,60.9,30.13,SSW,198,5.0,9.0,88,0.00,,OVC008,0.00,VWS V14.01,2013-01-25 10:18:00,
2013-01-25 04:23:00,64.5,60.9,30.12,SSW,200,4.0,11.0,88,0.00,,OVC008,0.00,VWS V14.01,2013-01-25 10:23:00,
2013-01-25 04:28:00,64.5,60.9,30.12,SSW,201,6.0,12.0,88,0.00,,OVC008,0.00,VWS V14.01,2013-01-25 10:28:00,
2013-01-25 04:33:00,64.5,60.9,30.12,SSE,160,4.0,12.0,88,0.00,,OVC008,0.00,VWS V14.01,2013-01-25 10:33:00,
2013-01-25 04:38:00,64.5,60.9,30.12,SSE,163,2.0,9.0,88,0.00,,OVC008,0.00,VWS V14.01,2013-01-25 10:38:00,
2013-01-25 04:43:00,64.5,60.9,30.12,SSW,196,3.0,9.0,88,0.00,,OVC008,0.00,VWS V14.01,2013-01-25 10:43:00,
2013-01-25 04:48:00,64.5,60.9,30.12,SSW,200,3.0,9.0,88,0.00,,OVC008,0.00,VWS V14.01,2013-01-25 10:48:00,
2013-01-25 04:53:00,64.5,60.9,30.12,South,185,1.0,9.0,88,0.00,,OVC008,0.00,VWS V14.01,2013-01-25 10:53:00,
2013-01-25 04:58:00,64.3,60.7,30.12,SSW,204,0.0,10.0,88,0.00,,OVC008,0.00,VWS V14.01,2013-01-25 10:58:00,
2013-01-25 05:03:00,64.3,60.3,30.12,South,188,3.0,10.0,87,0.00,,OVC008,0.00,VWS V14.01,2013-01-25 11:03:00,
2013-01-25 05:08:00,64.2,60.3,30.13,SSW,197,6.0,12.0,87,0.00,,OVC008,0.00,VWS V14.01,2013-01-25 11:08:00,
2013-01-25 05:13:00,64.2,60.3,30.13,South,186,0.0,12.0,87,0.00,,OVC008,0.00,VWS V14.01,2013-01-25 11:13:00,
2013-01-25 05:18:00,64.2,60.3,30.13,South,185,4.0,10.0,87,0.00,,OVC008,0.00,VWS V14.01,2013-01-25 11:18:00,
2013-01-25 05:23:00,64.2,60.3,30.13,SSW,193,5.0,10.0,87,0.00,,OVC008,0.00,VWS V14.01,2013-01-25 11:23:00,
2013-01-25 05:28:00,64.2,60.3,30.13,South,185,0.0,9.0,87,0.00,,OVC008,0.00,VWS V14.01,2013-01-25 11:28:00,
2013-01-25 05:33:00,64.2,60.3,30.13,SSW,193,0.0,9.0,87,0.00,,OVC008,0.00,VWS V14.01,2013-01-25 11:33:00,
2013-01-25 05:38:00,64.0,60.1,30.14,South,191,1.0,2.0,87,0.00,,OVC008,0.00,VWS V14.01,2013-01-25 11:38:00,
2013-01-25 05:43:00,64.0,60.1,30.14,SSW,192,0.0,5.0,87,0.00,,OVC008,0.00,VWS V14.01,2013-01-25 11:43:00,
2013-01-25 05:48:00,64.0,60.1,30.14,South,189,0.0,3.0,87,0.00,,OVC008,0.00,VWS V14.01,2013-01-25 11:48:00,
2013-01-25 05:53:00,64.0,59.7,30.14,South,178,0.0,3.0,86,0.00,,OVC008,0.00,VWS V14.01,2013-01-25 11:53:00,
2013-01-25 05:58:00,64.0,59.7,30.14,South,189,4.0,4.0,86,0.00,,OVC008,0.00,VWS V14.01,2013-01-25 11:58:00,
2013-01-25 06:03:00,64.0,60.1,30.14,SSW,198,3.0,7.0,87,0.00,,OVC008,0.00,VWS V14.01,2013-01-25 12:03:00,
2013-01-25 06:08:00,64.0,60.1,30.14,South,171,0.0,6.0,87,0.00,,OVC008,0.00,VWS V14.01,2013-01-25 12:08:00,
2013-01-25 06:13:00,64.0,60.1,30.14,South,185,0.0,9.0,87,0.00,,OVC010,0.00,VWS V14.01,2013-01-25 12:13:00,
2013-01-25 06:18:00,64.0,60.1,30.14,SSW,198,0.0,3.0,87,0.00,,OVC010,0.00,VWS V14.01,2013-01-25 12:18:00,
2013-01-25 06:23:00,63.9,60.0,30.14,South,187,0.0,6.0,87,0.00,,OVC010,0.00,VWS V14.01,2013-01-25 12:23:00,
2013-01-25 06:28:00,63.9,60.0,30.14,South,188,0.0,4.0,87,0.00,,OVC010,0.00,VWS V14.01,2013-01-25 12:28:00,
2013-01-25 06:33:00,63.9,60.0,30.14,South,175,0.0,4.0,87,0.00,,OVC010,0.00,VWS V14.01,2013-01-25 12:33:00,
2013-01-25 06:38:00,63.9,60.0,30.14,South,189,4.0,5.0,87,0.00,,OVC010,0.00,VWS V14.01,2013-01-25 12:38:00,
2013-01-25 06:43:00,63.9,60.0,30.14,SSW,203,1.0,6.0,87,0.00,,OVC010,0.00,VWS V14.01,2013-01-25 12:43:00,
2013-01-25 06:48:00,63.9,60.0,30.14,South,186,0.0,4.0,87,0.00,,OVC010,0.00,VWS V14.01,2013-01-25 12:48:00,
2013-01-25 06:53:00,63.9,60.0,30.14,SSW,198,0.0,6.0,87,0.00,,OVC010,0.00,VWS V14.01,2013-01-25 12:53:00,
2013-01-25 06:58:00,63.9,60.0,30.14,South,172,0.0,2.0,87,0.00,,OVC010,0.00,VWS V14.01,2013-01-25 12:58:00,
2013-01-25 07:03:00,63.9,60.0,30.14,South,180,0.0,3.0,87,0.00,,OVC010,0.00,VWS V14.01,2013-01-25 13:03:00,
2013-01-25 07:08:00,63.9,60.0,30.15,South,180,0.0,3.0,87,0.00,,OVC010,0.00,VWS V14.01,2013-01-25 13:08:00,
2013-01-25 07:13:00,63.9,60.0,30.15,SSW,202,0.0,3.0,87,0.00,,OVC010,0.00,VWS V14.01,2013-01-25 13:13:00,
2013-01-25 07:18:00,63.9,60.0,30.15,South,187,0.0,0.0,87,0.00,,OVC010,0.00,VWS V14.01,2013-01-25 13:18:00,
2013-01-25 07:23:00,63.9,60.0,30.16,South,188,0.0,3.0,87,0.00,,OVC010,0.00,VWS V14.01,2013-01-25 13:23:00,
2013-01-25 07:28:00,63.9,60.0,30.16,South,188,0.0,0.0,87,0.00,,OVC010,0.00,VWS V14.01,2013-01-25 13:28:00,
2013-01-25 07:33:00,63.9,60.0,30.16,South,186,0.0,4.0,87,0.00,,OVC010,0.00,VWS V14.01,2013-01-25 13:33:00,
2013-01-25 07:38:00,63.9,60.0,30.16,South,184,1.0,7.0,87,0.00,,OVC010,0.00,VWS V14.01,2013-01-25 13:38:00,
2013-01-25 07:43:00,63.9,60.0,30.16,South,190,0.0,7.0,87,0.00,,OVC010,0.00,VWS V14.01,2013-01-25 13:43:00,
2013-01-25 07:48:00,63.9,60.0,30.16,SSW,194,5.0,5.0,87,0.00,,OVC010,0.00,VWS V14.01,2013-01-25 13:48:00,
2013-01-25 07:52:00,63.9,60.0,30.16,SSW,194,0.0,6.0,87,0.00,,OVC010,0.00,VWS V14.01,2013-01-25 13:52:00,
2013-01-25 07:57:00,63.9,60.0,30.16,South,190,0.0,6.0,87,0.00,,OVC012,0.00,VWS V14.01,2013-01-25 13:57:00,
2013-01-25 08:02:00,63.9,60.0,30.16,South,187,0.0,6.0,87,0.00,,OVC012,0.00,VWS V14.01,2013-01-25 14:02:00,
2013-01-25 08:07:00,63.9,60.0,30.16,South,186,0.0,3.0,87,0.00,,OVC012,0.00,VWS V14.01,2013-01-25 14:07:00,
2013-01-25 08:12:00,64.0,60.1,30.16,South,175,0.0,5.0,87,0.00,,OVC012,0.00,VWS V14.01,2013-01-25 14:12:00,
2013-01-25 08:17:00,64.0,60.1,30.16,South,176,0.0,0.0,87,0.00,,OVC012,0.00,VWS V14.01,2013-01-25 14:17:00,
2013-01-25 08:22:00,64.2,60.3,30.16,SSW,196,3.0,9.0,87,0.00,,OVC012,0.00,VWS V14.01,2013-01-25 14:22:00,
2013-01-25 08:27:00,64.2,60.3,30.16,SSW,193,4.0,5.0,87,0.00,,OVC012,0.00,VWS V14.01,2013-01-25 14:27:00,
2013-01-25 08:32:00,64.3,60.3,30.16,South,176,0.0,6.0,87,0.00,,OVC012,0.00,VWS V14.01,2013-01-25 14:32:00,
2013-01-25 08:37:00,64.3,60.3,30.16,South,180,0.0,5.0,87,0.00,,OVC012,0.00,VWS V14.01,2013-01-25 14:37:00,
2013-01-25 08:42:00,64.3,60.0,30.16,SSW,192,0.0,9.0,86,0.00,,OVC012,0.00,VWS V14.01,2013-01-25 14:42:00,
2013-01-25 08:47:00,64.3,60.0,30.16,South,185,0.0,5.0,86,0.00,,OVC012,0.00,VWS V14.01,2013-01-25 14:47:00,
2013-01-25 08:52:00,64.5,60.2,30.17,SSW,209,2.0,5.0,86,0.00,,OVC012,0.00,VWS V14.01,2013-01-25 14:52:00,
2013-01-25 08:57:00,64.5,60.2,30.17,SSE,160,1.0,4.0,86,0.00,,OVC012,0.00,VWS V14.01,2013-01-25 14:57:00,
2013-01-25 09:02:00,64.7,60.1,30.17,South,186,0.0,6.0,85,0.00,,OVC012,0.00,VWS V14.01,2013-01-25 15:02:00,
2013-01-25 09:07:00,64.7,60.1,30.17,SSW,209,8.0,10.0,85,0.00,,OVC012,0.00,VWS V14.01,2013-01-25 15:07:00,
2013-01-25 09:12:00,64.8,60.2,30.17,SSW,213,9.0,10.0,85,0.00,,OVC012,0.00,VWS V14.01,2013-01-25 15:12:00,
2013-01-25 09:17:00,65.0,60.4,30.17,SSW,196,2.0,8.0,85,0.00,,OVC012,0.00,VWS V14.01,2013-01-25 15:17:00,
2013-01-25 09:22:00,65.0,60.4,30.17,SSW,211,6.0,12.0,85,0.00,,OVC012,0.00,VWS V14.01,2013-01-25 15:22:00,
2013-01-25 09:27:00,65.2,60.2,30.17,South,186,0.0,7.0,84,0.00,,OVC012,0.00,VWS V14.01,2013-01-25 15:27:00,
2013-01-25 09:32:00,65.2,60.2,30.17,South,185,0.0,7.0,84,0.00,,OVC012,0.00,VWS V14.01,2013-01-25 15:32:00,
2013-01-25 09:37:00,65.3,60.3,30.18,SSW,200,4.0,7.0,84,0.00,,OVC012,0.00,VWS V14.01,2013-01-25 15:37:00,
2013-01-25 09:42:00,65.3,60.3,30.18,SSE,161,0.0,7.0,84,0.00,,OVC012,0.00,VWS V14.01,2013-01-25 15:42:00,
2013-01-25 09:47:00,65.3,60.0,30.18,South,178,5.0,9.0,83,0.00,,OVC012,0.00,VWS V14.01,2013-01-25 15:47:00,
2013-01-25 09:52:00,65.5,60.2,30.18,SSE,165,3.0,9.0,83,0.00,,OVC012,0.00,VWS V14.01,2013-01-25 15:52:00,
2013-01-25 09:57:00,65.5,60.2,30.18,SSW,192,2.0,9.0,83,0.00,,OVC012,0.00,VWS V14.01,2013-01-25 15:57:00,
2013-01-25 10:02:00,65.5,60.2,30.18,South,186,4.0,12.0,83,0.00,,OVC012,0.00,VWS V14.01,2013-01-25 16:02:00,
2013-01-25 10:07:00,65.6,60.0,30.19,South,183,5.0,10.0,82,0.00,,OVC012,0.00,VWS V14.01,2013-01-25 16:07:00,
2013-01-25 10:12:00,65.6,60.0,30.19,SSE,167,4.0,10.0,82,0.00,,OVC012,0.00,VWS V14.01,2013-01-25 16:12:00,
2013-01-25 10:17:00,65.8,60.2,30.19,South,169,0.0,7.0,82,0.00,,OVC012,0.00,VWS V14.01,2013-01-25 16:17:00,
2013-01-25 10:22:00,66.0,60.0,30.19,South,171,0.0,7.0,81,0.00,,OVC012,0.00,VWS V14.01,2013-01-25 16:22:00,
2013-01-25 10:27:00,66.1,60.1,30.19,SSE,168,4.0,10.0,81,0.00,,OVC012,0.00,VWS V14.01,2013-01-25 16:27:00,
2013-01-25 10:32:00,66.3,60.3,30.19,South,178,3.0,10.0,81,0.00,,OVC012,0.00,VWS V14.01,2013-01-25 16:32:00,
2013-01-25 10:37:00,66.3,60.3,30.19,South,171,6.0,7.0,81,0.00,,OVC012,0.00,VWS V14.01,2013-01-25 16:37:00,
2013-01-25 10:42:00,66.4,60.0,30.19,SSE,161,4.0,9.0,80,0.00,,OVC012,0.00,VWS V14.01,2013-01-25 16:42:00,
2013-01-25 10:47:00,66.3,60.0,30.19,South,188,6.0,12.0,80,0.00,,OVC012,0.00,VWS V14.01,2013-01-25 16:47:00,
2013-01-25 10:52:00,66.4,60.0,30.19,SE,139,3.0,12.0,80,0.00,,OVC012,0.00,VWS V14.01,2013-01-25 16:52:00,
2013-01-25 10:57:00,66.6,59.9,30.19,South,188,5.0,8.0,79,0.00,,OVC012,0.00,VWS V14.01,2013-01-25 16:57:00,
2013-01-25 11:02:00,66.8,60.1,30.19,SSW,198,6.0,8.0,79,0.00,,OVC012,0.00,VWS V14.01,2013-01-25 17:02:00,
2013-01-25 11:07:00,66.8,60.1,30.19,SE,135,5.0,10.0,79,0.00,,OVC012,0.00,VWS V14.01,2013-01-25 17:07:00,
2013-01-25 11:12:00,66.9,60.2,30.19,South,190,5.0,10.0,79,0.00,,OVC012,0.00,VWS V14.01,2013-01-25 17:12:00,
2013-01-25 11:17:00,66.9,60.2,30.19,SSW,200,9.0,11.0,79,0.00,,OVC012,0.00,VWS V14.01,2013-01-25 17:17:00,
2013-01-25 11:22:00,67.3,60.2,30.19,SSW,205,7.0,11.0,78,0.00,,OVC012,0.00,VWS V14.01,2013-01-25 17:22:00,
2013-01-25 11:27:00,67.4,60.0,30.19,South,188,4.0,13.0,77,0.00,,OVC012,0.00,VWS V14.01,2013-01-25 17:27:00,
2013-01-25 11:32:00,67.9,60.1,30.19,South,173,4.0,13.0,76,0.00,,OVC012,0.00,VWS V14.01,2013-01-25 17:32:00,
2013-01-25 11:37:00,68.4,60.5,30.18,SW,222,5.0,5.0,76,0.00,,OVC012,0.00,VWS V14.01,2013-01-25 17:37:00,
2013-01-25 11:42:00,68.4,60.2,30.18,SSE,160,3.0,9.0,75,0.00,,OVC012,0.00,VWS V14.01,2013-01-25 17:42:00,
2013-01-25 11:47:00,68.6,60.4,30.18,SSW,211,9.0,11.0,75,0.00,,OVC012,0.00,VWS V14.01,2013-01-25 17:47:00,
2013-01-25 11:52:00,68.9,60.7,30.17,SSW,196,5.0,11.0,75,0.00,,OVC012,0.00,VWS V14.01,2013-01-25 17:52:00,
2013-01-25 11:57:00,69.1,60.5,30.17,SSE,164,4.0,10.0,74,0.00,,OVC016,0.00,VWS V14.01,2013-01-25 17:57:00,
2013-01-25 12:02:00,69.4,60.8,30.17,South,171,10.0,11.0,74,0.00,,OVC016,0.00,VWS V14.01,2013-01-25 18:02:00,
2013-01-25 12:07:00,69.9,60.9,30.16,SSW,193,1.0,10.0,73,0.00,,OVC016,0.00,VWS V14.01,2013-01-25 18:07:00,
2013-01-25 12:12:00,70.1,60.3,30.16,South,179,1.0,10.0,71,0.00,,OVC016,0.00,VWS V14.01,2013-01-25 18:12:00,
2013-01-25 12:17:00,70.8,60.9,30.16,SSE,165,0.0,6.0,71,0.00,,OVC016,0.00,VWS V14.01,2013-01-25 18:17:00,
2013-01-25 12:22:00,71.1,60.8,30.15,SSW,199,0.0,9.0,70,0.00,,OVC016,0.00,VWS V14.01,2013-01-25 18:22:00,
2013-01-25 12:27:00,71.5,60.8,30.15,South,190,2.0,8.0,69,0.00,,OVC016,0.00,VWS V14.01,2013-01-25 18:27:00,
2013-01-25 12:32:00,71.5,60.4,30.15,SSW,192,3.0,10.0,68,0.00,,SCT018,0.00,VWS V14.01,2013-01-25 18:32:00,
2013-01-25 12:37:00,72.0,60.9,30.14,South,176,2.0,11.0,68,0.00,,SCT018,0.00,VWS V14.01,2013-01-25 18:37:00,
2013-01-25 12:42:00,72.5,60.5,30.14,SSE,166,0.0,11.0,66,0.00,,SCT018,0.00,VWS V14.01,2013-01-25 18:42:00,
2013-01-25 12:47:00,73.0,61.0,30.14,South,184,5.0,5.0,66,0.00,,SCT018,0.00,VWS V14.01,2013-01-25 18:47:00,
2013-01-25 12:52:00,73.5,61.0,30.13,South,190,2.0,9.0,65,0.00,,SCT018,0.00,VWS V14.01,2013-01-25 18:52:00,
2013-01-25 12:57:00,73.5,60.6,30.13,SSE,159,3.0,11.0,64,0.00,,CLR,0.00,VWS V14.01,2013-01-25 18:57:00,
2013-01-25 13:02:00,73.7,60.8,30.13,South,171,1.0,12.0,64,0.00,,CLR,0.00,VWS V14.01,2013-01-25 19:02:00,
2013-01-25 13:07:00,73.9,60.5,30.12,SSW,205,6.0,11.0,63,0.00,,CLR,0.00,VWS V14.01,2013-01-25 19:07:00,
2013-01-25 13:12:00,74.4,61.0,30.12,South,175,4.0,11.0,63,0.00,,CLR,0.00,VWS V14.01,2013-01-25 19:12:00,
2013-01-25 13:17:00,74.7,60.8,30.12,South,180,3.0,8.0,62,0.00,,CLR,0.00,VWS V14.01,2013-01-25 19:17:00,
2013-01-25 13:22:00,75.3,60.9,30.11,South,183,0.0,8.0,61,0.00,,CLR,0.00,VWS V14.01,2013-01-25 19:22:00,
2013-01-25 13:27:00,76.0,60.7,30.11,SW,219,4.0,9.0,59,0.00,,CLR,0.00,VWS V14.01,2013-01-25 19:27:00,
2013-01-25 13:32:00,76.5,60.6,30.11,SSW,192,5.0,9.0,58,0.00,,CLR,0.00,VWS V14.01,2013-01-25 19:32:00,
2013-01-25 13:37:00,76.5,60.2,30.11,South,185,7.0,10.0,57,0.00,,CLR,0.00,VWS V14.01,2013-01-25 19:37:00,
2013-01-25 13:42:00,76.3,60.0,30.11,South,175,3.0,11.0,57,0.00,,CLR,0.00,VWS V14.01,2013-01-25 19:42:00,
2013-01-25 13:47:00,76.8,60.4,30.11,SSW,208,0.0,10.0,57,0.00,,CLR,0.00,VWS V14.01,2013-01-25 19:47:00,
2013-01-25 13:52:00,76.8,59.9,30.10,South,178,2.0,12.0,56,0.00,,CLR,0.00,VWS V14.01,2013-01-25 19:52:00,
2013-01-25 13:57:00,77.0,60.6,30.10,South,190,1.0,13.0,57,0.00,,CLR,0.00,VWS V14.01,2013-01-25 19:57:00,
2013-01-25 14:02:00,77.4,60.5,30.10,SSW,209,10.0,13.0,56,0.00,,CLR,0.00,VWS V14.01,2013-01-25 20:02:00,
2013-01-25 14:07:00,77.7,60.3,30.09,SSW,211,0.0,6.0,55,0.00,,CLR,0.00,VWS V14.01,2013-01-25 20:07:00,
2013-01-25 14:12:00,78.5,60.5,30.09,SSE,148,0.0,10.0,54,0.00,,CLR,0.00,VWS V14.01,2013-01-25 20:12:00,
2013-01-25 14:17:00,78.3,60.3,30.09,SSW,198,6.0,12.0,54,0.00,,CLR,0.00,VWS V14.01,2013-01-25 20:17:00,
2013-01-25 14:22:00,78.3,60.3,30.08,SSW,198,9.0,12.0,54,0.00,,CLR,0.00,VWS V14.01,2013-01-25 20:22:00,
2013-01-25 14:27:00,78.6,60.6,30.08,South,186,0.0,8.0,54,0.00,,CLR,0.00,VWS V14.01,2013-01-25 20:27:00,
2013-01-25 14:32:00,78.6,60.1,30.08,SE,143,6.0,10.0,53,0.00,,CLR,0.00,VWS V14.01,2013-01-25 20:32:00,
2013-01-25 14:37:00,79.0,59.9,30.07,South,187,4.0,8.0,52,0.00,,CLR,0.00,VWS V14.01,2013-01-25 20:37:00,
2013-01-25 14:42:00,79.2,60.1,30.07,South,175,1.0,11.0,52,0.00,,CLR,0.00,VWS V14.01,2013-01-25 20:42:00,
2013-01-25 14:47:00,79.2,60.1,30.07,South,186,4.0,12.0,52,0.00,,CLR,0.00,VWS V14.01,2013-01-25 20:47:00,
2013-01-25 14:52:00,78.8,60.2,30.07,SSW,192,0.0,12.0,53,0.00,,CLR,0.00,VWS V14.01,2013-01-25 20:52:00,
2013-01-25 14:57:00,78.8,59.7,30.07,SE,141,3.0,7.0,52,0.00,,CLR,0.00,VWS V14.01,2013-01-25 20:57:00,
2013-01-25 15:02:00,79.2,60.1,30.07,SSW,194,5.0,8.0,52,0.00,,CLR,0.00,VWS V14.01,2013-01-25 21:02:00,
2013-01-25 15:07:00,79.4,59.2,30.07,South,186,4.0,9.0,50,0.00,,CLR,0.00,VWS V14.01,2013-01-25 21:07:00,
2013-01-25 15:12:00,79.8,59.5,30.07,SSW,194,2.0,11.0,50,0.00,,CLR,0.00,VWS V14.01,2013-01-25 21:12:00,
2013-01-25 15:17:00,79.9,59.6,30.07,South,190,7.0,9.0,50,0.00,,CLR,0.00,VWS V14.01,2013-01-25 21:17:00,
2013-01-25 15:22:00,80.1,59.2,30.07,South,183,6.0,10.0,49,0.00,,CLR,0.00,VWS V14.01,2013-01-25 21:22:00,
2013-01-25 15:27:00,80.3,59.4,30.07,SSE,161,2.0,6.0,49,0.00,,CLR,0.00,VWS V14.01,2013-01-25 21:27:00,
2013-01-25 15:32:00,80.5,59.6,30.07,South,191,9.0,9.0,49,0.00,,CLR,0.00,VWS V14.01,2013-01-25 21:32:00,
2013-01-25 15:37:00,80.5,59.6,30.06,SSE,159,3.0,10.0,49,0.00,,CLR,0.00,VWS V14.01,2013-01-25 21:37:00,
2013-01-25 15:42:00,80.9,59.4,30.06,SSE,156,0.0,10.0,48,0.00,,CLR,0.00,VWS V14.01,2013-01-25 21:42:00,
2013-01-25 15:47:00,81.1,60.2,30.06,SSE,162,0.0,6.0,49,0.00,,CLR,0.00,VWS V14.01,2013-01-25 21:47:00,
2013-01-25 15:52:00,80.7,59.8,30.06,South,182,4.0,9.0,49,0.00,,CLR,0.00,VWS V14.01,2013-01-25 21:52:00,
2013-01-25 15:57:00,80.7,59.8,30.06,South,186,2.0,9.0,49,0.00,,CLR,0.00,VWS V14.01,2013-01-25 21:57:00,
2013-01-25 16:02:00,80.7,59.8,30.06,SE,146,4.0,10.0,49,0.00,,CLR,0.00,VWS V14.01,2013-01-25 22:02:00,
2013-01-25 16:07:00,80.7,59.8,30.06,South,182,3.0,10.0,49,0.00,,CLR,0.00,VWS V14.01,2013-01-25 22:07:00,
2013-01-25 16:12:00,81.1,59.6,30.06,SSW,202,3.0,10.0,48,0.00,,CLR,0.00,VWS V14.01,2013-01-25 22:12:00,
2013-01-25 16:17:00,81.1,59.0,30.06,South,183,0.0,7.0,47,0.00,,CLR,0.00,VWS V14.01,2013-01-25 22:17:00,
2013-01-25 16:22:00,81.1,59.6,30.06,SSW,200,0.0,12.0,48,0.00,,CLR,0.00,VWS V14.01,2013-01-25 22:22:00,
2013-01-25 16:27:00,80.9,59.4,30.06,SSE,161,2.0,4.0,48,0.00,,CLR,0.00,VWS V14.01,2013-01-25 22:27:00,
2013-01-25 16:32:00,80.7,59.8,30.06,South,171,1.0,5.0,49,0.00,,CLR,0.00,VWS V14.01,2013-01-25 22:32:00,
2013-01-25 16:37:00,80.7,59.8,30.05,South,173,2.0,4.0,49,0.00,,CLR,0.00,VWS V14.01,2013-01-25 22:37:00,
2013-01-25 16:42:00,80.7,59.2,30.05,SSW,192,0.0,7.0,48,0.00,,CLR,0.00,VWS V14.01,2013-01-25 22:42:00,
2013-01-25 16:47:00,80.7,59.2,30.05,SSE,163,2.0,7.0,48,0.00,,CLR,0.00,VWS V14.01,2013-01-25 22:47:00,
2013-01-25 16:52:00,80.7,59.2,30.04,South,183,6.0,9.0,48,0.00,,CLR,0.00,VWS V14.01,2013-01-25 22:52:00,
2013-01-25 16:57:00,80.3,59.4,30.04,SSE,151,0.0,11.0,49,0.00,,CLR,0.00,VWS V14.01,2013-01-25 22:57:00,
2013-01-25 17:02:00,80.1,59.2,30.04,South,174,2.0,11.0,49,0.00,,CLR,0.00,VWS V14.01,2013-01-25 23:02:00,
2013-01-25 17:07:00,79.9,59.0,30.05,South,175,0.0,6.0,49,0.00,,CLR,0.00,VWS V14.01,2013-01-25 23:07:00,
2013-01-25 17:12:00,79.9,59.0,30.05,South,177,0.0,6.0,49,0.00,,CLR,0.00,VWS V14.01,2013-01-25 23:12:00,
2013-01-25 17:17:00,80.1,59.2,30.05,South,186,0.0,7.0,49,0.00,,CLR,0.00,VWS V14.01,2013-01-25 23:17:00,
2013-01-25 17:22:00,80.3,58.8,30.06,South,190,0.0,7.0,48,0.00,,CLR,0.00,VWS V14.01,2013-01-25 23:22:00,
2013-01-25 17:27:00,80.1,59.2,30.06,SSW,200,3.0,6.0,49,0.00,,CLR,0.00,VWS V14.01,2013-01-25 23:27:00,
2013-01-25 17:32:00,79.8,59.5,30.06,South,175,0.0,6.0,50,0.00,,CLR,0.00,VWS V14.01,2013-01-25 23:32:00,
2013-01-25 17:37:00,79.6,59.3,30.06,SSE,151,0.0,0.0,50,0.00,,CLR,0.00,VWS V14.01,2013-01-25 23:37:00,
2013-01-25 17:42:00,79.4,59.7,30.06,SSE,161,0.0,3.0,51,0.00,,CLR,0.00,VWS V14.01,2013-01-25 23:42:00,
2013-01-25 17:47:00,79.2,60.1,30.06,SE,142,0.0,4.0,52,0.00,,CLR,0.00,VWS V14.01,2013-01-25 23:47:00,
2013-01-25 17:52:00,78.8,60.2,30.06,SE,145,3.0,4.0,53,0.00,,CLR,0.00,VWS V14.01,2013-01-25 23:52:00,
2013-01-25 17:57:00,78.6,60.1,30.06,SSE,154,0.0,3.0,53,0.00,,CLR,0.00,VWS V14.01,2013-01-25 23:57:00,
2013-01-25 18:02:00,78.3,59.8,30.06,SSE,168,1.0,5.0,53,0.00,,CLR,0.00,VWS V14.01,2013-01-26 00:02:00,
2013-01-25 18:07:00,78.1,60.1,30.06,SSE,161,0.0,0.0,54,0.00,,CLR,0.00,VWS V14.01,2013-01-26 00:07:00,
2013-01-25 18:12:00,77.7,59.8,30.06,SSE,154,0.0,2.0,54,0.00,,CLR,0.00,VWS V14.01,2013-01-26 00:12:00,
2013-01-25 18:17:00,77.6,60.2,30.06,SSE,154,0.0,0.0,55,0.00,,CLR,0.00,VWS V14.01,2013-01-26 00:17:00,
2013-01-25 18:22:00,77.4,60.0,30.07,SSE,154,0.0,0.0,55,0.00,,CLR,0.00,VWS V14.01,2013-01-26 00:22:00,
2013-01-25 18:27:00,77.0,59.6,30.07,SSE,153,0.0,0.0,55,0.00,,CLR,0.00,VWS V14.01,2013-01-26 00:27:00,
2013-01-25 18:32:00,76.7,59.8,30.07,SSE,154,0.0,0.0,56,0.00,,CLR,0.00,VWS V14.01,2013-01-26 00:32:00,
2013-01-25 18:37:00,76.5,59.7,30.07,SSE,154,0.0,0.0,56,0.00,,CLR,0.00,VWS V14.01,2013-01-26 00:37:00,
2013-01-25 18:42:00,76.1,59.8,30.07,SSE,153,0.0,0.0,57,0.00,,CLR,0.00,VWS V14.01,2013-01-26 00:42:00,
2013-01-25 18:47:00,76.0,59.7,30.07,SSE,153,0.0,0.0,57,0.00,,CLR,0.00,VWS V14.01,2013-01-26 00:47:00,
2013-01-25 18:52:00,75.8,59.5,30.07,SSE,153,0.0,0.0,57,0.00,,CLR,0.00,VWS V14.01,2013-01-26 00:52:00,
2013-01-25 18:57:00,75.6,59.3,30.07,SSE,151,0.0,0.0,57,0.00,,CLR,0.00,VWS V14.01,2013-01-26 00:57:00,
2013-01-25 19:02:00,75.4,59.6,30.07,SSE,151,0.0,0.0,58,0.00,,CLR,0.00,VWS V14.01,2013-01-26 01:02:00,
2013-01-25 19:07:00,75.1,59.3,30.07,SSE,151,0.0,0.0,58,0.00,,CLR,0.00,VWS V14.01,2013-01-26 01:07:00,
2013-01-25 19:12:00,74.9,59.6,30.07,SSE,151,0.0,0.0,59,0.00,,CLR,0.00,VWS V14.01,2013-01-26 01:12:00,
2013-01-25 19:17:00,74.7,59.4,30.07,SSE,151,0.0,0.0,59,0.00,,CLR,0.00,VWS V14.01,2013-01-26 01:17:00,
2013-01-25 19:22:00,74.4,59.6,30.07,SSE,151,0.0,0.0,60,0.00,,CLR,0.00,VWS V14.01,2013-01-26 01:22:00,
2013-01-25 19:27:00,74.2,59.4,30.07,SSE,151,0.0,0.0,60,0.00,,CLR,0.00,VWS V14.01,2013-01-26 01:27:00,
2013-01-25 19:32:00,74.0,59.2,30.07,SSE,148,0.0,0.0,60,0.00,,CLR,0.00,VWS V14.01,2013-01-26 01:32:00,
2013-01-25 19:37:00,73.9,59.6,30.08,SE,142,2.0,7.0,61,0.00,,CLR,0.00,VWS V14.01,2013-01-26 01:37:00,
2013-01-25 19:42:00,73.7,59.9,30.08,SE,131,3.0,7.0,62,0.00,,CLR,0.00,VWS V14.01,2013-01-26 01:42:00,
2013-01-25 19:47:00,73.5,60.2,30.08,SE,127,0.0,4.0,63,0.00,,CLR,0.00,VWS V14.01,2013-01-26 01:47:00,
2013-01-25 19:52:00,73.3,60.4,30.08,ESE,118,0.0,4.0,64,0.00,,CLR,0.00,VWS V14.01,2013-01-26 01:52:00,
2013-01-25 19:57:00,73.2,60.7,30.08,SE,132,0.0,2.0,65,0.00,,CLR,0.00,VWS V14.01,2013-01-26 01:57:00,
2013-01-25 20:02:00,73.0,61.0,30.08,SE,132,5.0,9.0,66,0.00,,CLR,0.00,VWS V14.01,2013-01-26 02:02:00,
2013-01-25 20:07:00,73.0,61.0,30.08,SE,142,0.0,7.0,66,0.00,,CLR,0.00,VWS V14.01,2013-01-26 02:07:00,
2013-01-25 20:12:00,73.0,61.4,30.08,ESE,115,0.0,7.0,67,0.00,,CLR,0.00,VWS V14.01,2013-01-26 02:12:00,
2013-01-25 20:17:00,72.8,61.2,30.08,ESE,118,1.0,6.0,67,0.00,,CLR,0.00,VWS V14.01,2013-01-26 02:17:00,
2013-01-25 20:22:00,72.7,61.5,30.09,ESE,122,0.0,6.0,68,0.00,,CLR,0.00,VWS V14.01,2013-01-26 02:22:00,
2013-01-25 20:27:00,72.3,61.6,30.09,ESE,105,4.0,6.0,69,0.00,,CLR,0.00,VWS V14.01,2013-01-26 02:27:00,
2013-01-25 20:32:00,72.1,61.8,30.09,SSE,161,5.0,10.0,70,0.00,,CLR,0.00,VWS V14.01,2013-01-26 02:32:00,
2013-01-25 20:37:00,72.0,62.1,30.09,South,180,6.0,7.0,71,0.00,,CLR,0.00,VWS V14.01,2013-01-26 02:37:00,
2013-01-25 20:42:00,71.6,62.1,30.09,South,173,0.0,7.0,72,0.00,,CLR,0.00,VWS V14.01,2013-01-26 02:42:00,
2013-01-25 20:47:00,71.5,62.4,30.09,South,176,3.0,11.0,73,0.00,,CLR,0.00,VWS V14.01,2013-01-26 02:47:00,
2013-01-25 20:52:00,71.1,62.4,30.09,SSE,167,3.0,11.0,74,0.00,,CLR,0.00,VWS V14.01,2013-01-26 02:52:00,
2013-01-25 20:57:00,70.9,62.2,30.09,SE,142,0.0,4.0,74,0.00,,CLR,0.00,VWS V14.01,2013-01-26 02:57:00,
2013-01-25 21:02:00,70.8,62.5,30.09,SSE,150,0.0,5.0,75,0.00,,CLR,0.00,VWS V14.01,2013-01-26 03:02:00,
2013-01-25 21:07:00,70.6,62.3,30.10,SE,139,0.0,10.0,75,0.00,,CLR,0.00,VWS V14.01,2013-01-26 03:07:00,
2013-01-25 21:12:00,70.3,62.4,30.10,SE,134,2.0,10.0,76,0.00,,CLR,0.00,VWS V14.01,2013-01-26 03:12:00,
2013-01-25 21:17:00,70.3,62.4,30.10,ESE,121,0.0,4.0,76,0.00,,CLR,0.00,VWS V14.01,2013-01-26 03:17:00,
2013-01-25 21:22:00,70.1,62.2,30.11,SSE,163,0.0,5.0,76,0.00,,CLR,0.00,VWS V14.01,2013-01-26 03:22:00,
2013-01-25 21:27:00,69.9,62.4,30.11,SE,142,3.0,6.0,77,0.00,,CLR,0.00,VWS V14.01,2013-01-26 03:27:00,
2013-01-25 21:32:00,69.8,62.3,30.11,SE,138,0.0,6.0,77,0.00,,CLR,0.00,VWS V14.01,2013-01-26 03:32:00,
2013-01-25 21:37:00,69.6,62.4,30.11,SSE,148,1.0,6.0,78,0.00,,CLR,0.00,VWS V14.01,2013-01-26 03:37:00,
2013-01-25 21:42:00,69.4,62.2,30.11,SSE,159,0.0,9.0,78,0.00,,CLR,0.00,VWS V14.01,2013-01-26 03:42:00,
2013-01-25 21:47:00,69.3,62.2,30.11,SE,135,0.0,4.0,78,0.00,,CLR,0.00,VWS V14.01,2013-01-26 03:47:00,
2013-01-25 21:52:00,69.1,62.3,30.12,SSE,153,7.0,9.0,79,0.00,,CLR,0.00,VWS V14.01,2013-01-26 03:52:00,
2013-01-25 21:57:00,68.9,62.1,30.12,South,177,0.0,4.0,79,0.00,,CLR,0.00,VWS V14.01,2013-01-26 03:57:00,
2013-01-25 22:01:00,68.8,62.0,30.12,SSE,153,5.0,8.0,79,0.00,,CLR,0.00,VWS V14.01,2013-01-26 04:01:00,
2013-01-25 22:06:00,68.6,61.8,30.12,SSE,166,0.0,0.0,79,0.00,,CLR,0.00,VWS V14.01,2013-01-26 04:06:00,
2013-01-25 22:11:00,68.4,61.6,30.12,SSE,155,4.0,7.0,79,0.00,,CLR,0.00,VWS V14.01,2013-01-26 04:11:00,
2013-01-25 22:16:00,68.3,61.9,30.12,SE,144,0.0,4.0,80,0.00,,CLR,0.00,VWS V14.01,2013-01-26 04:16:00,
2013-01-25 22:21:00,68.3,61.9,30.13,SSE,155,2.0,4.0,80,0.00,,CLR,0.00,VWS V14.01,2013-01-26 04:21:00,
2013-01-25 22:26:00,68.1,61.7,30.13,South,169,0.0,0.0,80,0.00,,CLR,0.00,VWS V14.01,2013-01-26 04:26:00,
2013-01-25 22:31:00,68.1,62.1,30.13,SE,126,0.0,7.0,81,0.00,,CLR,0.00,VWS V14.01,2013-01-26 04:31:00,
2013-01-25 22:36:00,67.9,61.9,30.14,South,183,0.0,0.0,81,0.00,,CLR,0.00,VWS V14.01,2013-01-26 04:36:00,
2013-01-25 22:41:00,67.8,61.8,30.14,SE,146,0.0,4.0,81,0.00,,CLR,0.00,VWS V14.01,2013-01-26 04:41:00,
2013-01-25 22:46:00,67.8,62.1,30.14,SE,131,0.0,0.0,82,0.00,,BKN020,0.00,VWS V14.01,2013-01-26 04:46:00,
2013-01-25 22:51:00,67.6,61.9,30.15,ESE,111,0.0,0.0,82,0.00,,BKN020,0.00,VWS V14.01,2013-01-26 04:51:00,
2013-01-25 22:56:00,67.6,61.9,30.15,ESE,111,0.0,0.0,82,0.00,,OVC020,0.00,VWS V14.01,2013-01-26 04:56:00,
2013-01-25 23:00:00,67.4,61.7,30.15,ESE,110,0.0,0.0,82,0.00,,OVC020,0.00,VWS V14.01,2013-01-26 05:00:00,
2013-01-25 23:05:00,67.4,61.7,30.16,East,96,0.0,0.0,82,0.00,,OVC020,0.00,VWS V14.01,2013-01-26 05:05:00,
2013-01-25 23:10:00,67.4,61.7,30.16,East,94,0.0,0.0,82,0.00,,OVC020,0.00,VWS V14.01,2013-01-26 05:10:00,
2013-01-25 23:15:00,67.4,61.7,30.16,East,94,0.0,0.0,82,0.00,,OVC020,0.00,VWS V14.01,2013-01-26 05:15:00,
2013-01-25 23:20:00,67.6,61.9,30.15,East,94,0.0,0.0,82,0.00,,OVC020,0.00,VWS V14.01,2013-01-26 05:20:00,
2013-01-25 23:25:00,67.6,61.9,30.15,East,94,0.0,0.0,82,0.00,,OVC020,0.00,VWS V14.01,2013-01-26 05:25:00,
2013-01-25 23:30:00,67.6,62.3,30.15,East,94,0.0,0.0,83,0.00,,OVC020,0.00,VWS V14.01,2013-01-26 05:30:00,
2013-01-25 23:35:00,67.6,62.3,30.15,East,94,0.0,0.0,83,0.00,,OVC020,0.00,VWS V14.01,2013-01-26 05:35:00,
2013-01-25 23:40:00,67.6,62.3,30.15,East,94,0.0,0.0,83,0.00,,OVC020,0.00,VWS V14.01,2013-01-26 05:40:00,
2013-01-25 23:45:00,67.6,62.3,30.15,East,94,0.0,0.0,83,0.00,,OVC020,0.00,VWS V14.01,2013-01-26 05:45:00,
2013-01-25 23:50:00,67.6,62.3,30.15,East,94,0.0,0.0,83,0.00,,OVC020,0.00,VWS V14.01,2013-01-26 05:50:00,
2013-01-25 23:55:00,67.8,62.5,30.15,East,94,0.0,0.0,83,0.00,,OVC016,0.00,VWS V14.01,2013-01-26 05:55:00,